| time (UTC) | temp C | wind direction | speed KPH | gust KPH | rain 1hr cm | rain 24hr cm | rain mn cm | humidity % | barometer mb |
| 20260901105944 | 22 | 260 | 9.7 | 19.3 | 0.00 | 0.00 | 0.00 | ||
| 20260901105542 | 22 | 249 | 11.3 | 16.1 | 0.00 | 0.00 | 0.00 | ||
| 20260901105141 | 22 | 251 | 8.0 | 16.1 | 0.00 | 0.00 | 0.00 | ||
| 20260901104739 | 22 | 247 | 16.1 | 24.1 | 0.00 | 0.00 | 0.00 | ||
| 20260901104337 | 23 | 244 | 14.5 | 22.5 | 0.00 | 0.00 | 0.00 | ||
| 20260901103929 | 23 | 258 | 12.9 | 19.3 | 0.00 | 0.00 | 0.00 | ||
| 20260901103527 | 23 | 223 | 9.7 | 22.5 | 0.00 | 0.00 | 0.00 | ||
| 20260901103126 | 22 | 258 | 12.9 | 19.3 | 0.00 | 0.00 | 0.00 | ||
| 20260901102724 | 22 | 275 | 14.5 | 20.9 | 0.00 | 0.00 | 0.00 | ||
| 20260901102322 | 22 | 263 | 11.3 | 16.1 | 0.00 | 0.00 | 0.00 | ||
| 20260901101921 | 22 | 263 | 14.5 | 20.9 | 0.00 | 0.00 | 0.00 | ||
| 20260901101520 | 22 | 242 | 12.9 | 20.9 | 0.00 | 0.00 | 0.00 | ||
| 20260901101117 | 23 | 271 | 14.5 | 24.1 | 0.00 | 0.00 | 0.00 | ||
| 20260901100716 | 22 | 214 | 12.9 | 24.1 | 0.00 | 0.00 | 0.00 | ||
| 20260901100315 | 22 | 232 | 11.3 | 22.5 | 0.00 | 0.00 | 0.00 | ||
| 20260901095907 | 23 | 263 | 11.3 | 20.9 | 0.00 | 0.00 | 0.00 | ||
| 20260901095504 | 23 | 243 | 11.3 | 17.7 | 0.00 | 0.00 | 0.00 | ||
| 20260901095103 | 22 | 228 | 12.9 | 20.9 | 0.00 | 0.00 | 0.00 | ||
| 20260901094702 | 22 | 278 | 12.9 | 16.1 | 0.00 | 0.00 | 0.00 | ||
| 20260901094300 | 22 | 247 | 11.3 | 17.7 | 0.00 | 0.00 | 0.00 | ||
| 20260901093858 | 22 | 248 | 12.9 | 19.3 | 0.00 | 0.00 | 0.00 | ||
| 20260901093456 | 22 | 232 | 11.3 | 19.3 | 0.00 | 0.00 | 0.00 | ||
| 20260901093055 | 22 | 254 | 9.7 | 19.3 | 0.00 | 0.00 | 0.00 | ||
| 20260901092654 | 22 | 258 | 14.5 | 20.9 | 0.00 | 0.00 | 0.00 | ||
| 20260901091843 | 22 | 241 | 9.7 | 14.5 | 0.00 | 0.00 | 0.00 | ||
| 20260901091441 | 21 | 244 | 14.5 | 17.7 | 0.00 | 0.00 | 0.00 | ||
| 20260901091040 | 22 | 219 | 6.4 | 11.3 | 0.00 | 0.00 | 0.00 | ||
| 20260901090639 | 22 | 240 | 9.7 | 14.5 | 0.00 | 0.00 | 0.00 | ||
| 20260901090236 | 21 | 266 | 8.0 | 11.3 | 0.00 | 0.00 | 0.00 | ||
| 20260901085835 | 22 | 267 | 11.3 | 14.5 | 0.00 | 0.00 | 0.00 | ||
| 20260901085433 | 22 | 241 | 11.3 | 17.7 | 0.00 | 0.00 | 0.00 | ||
| 20260901085033 | 21 | 260 | 14.5 | 17.7 | 0.00 | 0.00 | 0.00 | ||
| 20260901084630 | 22 | 222 | 12.9 | 24.1 | 0.00 | 0.00 | 0.00 | ||
| 20260901084309 | 22 | 255 | 12.9 | 19.3 | 0.00 | 0.00 | 0.00 | ||
| 20260901084229 | 22 | 255 | 12.9 | 19.3 | 0.00 | 0.00 | 0.00 | ||
| 20260901083821 | 21 | 248 | 11.3 | 17.7 | 0.00 | 0.00 | 0.00 | ||
| 20260901083419 | 21 | 272 | 11.3 | 16.1 | 0.00 | 0.00 | 0.00 | ||
| 20260901083017 | 21 | 281 | 11.3 | 14.5 | 0.00 | 0.00 | 0.00 | ||
| 20260901082616 | 21 | 295 | 12.9 | 19.3 | 0.00 | 0.00 | 0.00 | ||
| 20260901082214 | 22 | 254 | 8.0 | 16.1 | 0.00 | 0.00 | 0.00 | ||
| 20260901081813 | 22 | 229 | 9.7 | 19.3 | 0.00 | 0.00 | 0.00 | ||
| 20260901081411 | 22 | 211 | 8.0 | 16.1 | 0.00 | 0.00 | 0.00 | ||
| 20260901081009 | 22 | 246 | 8.0 | 14.5 | 0.00 | 0.00 | 0.00 | ||
| 20260901080608 | 21 | 258 | 9.7 | 14.5 | 0.00 | 0.00 | 0.00 | ||
| 20260901080206 | 21 | 249 | 9.7 | 16.1 | 0.00 | 0.00 | 0.00 | ||
| 20260901075758 | 21 | 234 | 12.9 | 17.7 | 0.00 | 0.00 | 0.00 | ||
| 20260901075545 | 21 | 250 | 11.3 | 14.5 | 0.00 | 0.00 | 0.00 | ||
| 20260901075355 | 21 | 249 | 12.9 | 17.7 | 0.00 | 0.00 | 0.00 | ||
| 20260901074954 | 21 | 250 | 11.3 | 14.5 | 0.00 | 0.00 | 0.00 | ||
| 20260901074553 | 21 | 266 | 12.9 | 17.7 | 0.00 | 0.00 | 0.00 | ||
| 20260901074151 | 21 | 255 | 16.1 | 22.5 | 0.00 | 0.00 | 0.00 | ||
| 20260901073749 | 20 | 270 | 16.1 | 24.1 | 0.00 | 0.00 | 0.00 | ||
| 20260901073347 | 20 | 274 | 14.5 | 19.3 | 0.00 | 0.00 | 0.00 | ||
| 20260901072946 | 20 | 268 | 14.5 | 20.9 | 0.00 | 0.00 | 0.00 | ||
| 20260901072545 | 21 | 262 | 9.7 | 22.5 | 0.00 | 0.00 | 0.00 | ||
| 20260901072142 | 21 | 244 | 9.7 | 20.9 | 0.00 | 0.00 | 0.00 | ||
| 20260901071735 | 20 | 229 | 17.7 | 27.4 | 0.00 | 0.00 | 0.00 | ||
| 20260901071333 | 21 | 237 | 14.5 | 19.3 | 0.00 | 0.00 | 0.00 | ||
| 20260901070931 | 20 | 252 | 14.5 | 20.9 | 0.00 | 0.00 | 0.00 | ||
| 20260901070531 | 21 | 241 | 14.5 | 19.3 | 0.00 | 0.00 | 0.00 | ||
| 20260901070128 | 20 | 229 | 12.9 | 20.9 | 0.00 | 0.00 | 0.00 | ||
| 20260901065726 | 21 | 231 | 14.5 | 19.3 | 0.00 | 0.00 | 0.00 | ||
| 20260901065324 | 21 | 239 | 9.7 | 14.5 | 0.00 | 0.00 | 0.00 | ||
| 20260901064922 | 21 | 248 | 9.7 | 12.9 | 0.00 | 0.00 | 0.00 | ||
| 20260901064520 | 21 | 264 | 11.3 | 17.7 | 0.00 | 0.00 | 0.00 | ||
| 20260901064119 | 21 | 246 | 12.9 | 19.3 | 0.00 | 0.00 | 0.00 | ||
| 20260901063711 | 21 | 240 | 16.1 | 22.5 | 0.00 | 0.00 | 0.00 | ||
| 20260901063309 | 20 | 244 | 14.5 | 19.3 | 0.00 | 0.00 | 0.00 | ||
| 20260901062907 | 20 | 254 | 12.9 | 24.1 | 0.00 | 0.00 | 0.00 | ||
| 20260901062506 | 20 | 236 | 12.9 | 19.3 | 0.00 | 0.00 | 0.00 | ||
| 20260901062104 | 20 | 245 | 14.5 | 22.5 | 0.00 | 0.00 | 0.00 | ||
| 20260901061703 | 20 | 238 | 14.5 | 22.5 | 0.00 | 0.00 | 0.00 | ||
| 20260901061300 | 20 | 249 | 12.9 | 20.9 | 0.00 | 0.00 | 0.00 | ||
| 20260901060859 | 20 | 257 | 17.7 | 27.4 | 0.00 | 0.00 | 0.00 | ||
| 20260901060458 | 21 | 246 | 11.3 | 17.7 | 0.00 | 0.00 | 0.00 | ||
| 20260901060056 | 21 | 253 | 8.0 | 14.5 | 0.00 | 0.00 | 0.00 | ||
| 20260901055648 | 20 | 250 | 12.9 | 17.7 | 0.00 | 0.00 | 0.00 | ||
| 20260901055245 | 20 | 249 | 14.5 | 20.9 | 0.00 | 0.00 | 0.00 | ||
| 20260901054844 | 20 | 248 | 14.5 | 22.5 | 0.00 | 0.00 | 0.00 | ||
| 20260901054443 | 20 | 251 | 9.7 | 16.1 | 0.00 | 0.00 | 0.00 | ||
| 20260901054041 | 20 | 247 | 9.7 | 16.1 | 0.00 | 0.00 | 0.00 | ||
| 20260901053639 | 20 | 232 | 12.9 | 20.9 | 0.00 | 0.00 | 0.00 | ||
| 20260901053237 | 20 | 254 | 12.9 | 17.7 | 0.00 | 0.00 | 0.00 | ||
| 20260901052836 | 21 | 243 | 8.0 | 14.5 | 0.00 | 0.00 | 0.00 | ||
| 20260901052435 | 21 | 237 | 8.0 | 16.1 | 0.00 | 0.00 | 0.00 | ||
| 20260901052032 | 20 | 234 | 8.0 | 12.9 | 0.00 | 0.00 | 0.00 | ||
| 20260901051624 | 20 | 234 | 6.4 | 11.3 | 0.00 | 0.00 | 0.00 | ||
| 20260901051223 | 21 | 239 | 6.4 | 9.7 | 0.00 | 0.00 | 0.00 | ||
| 20260901050822 | 20 | 250 | 6.4 | 9.7 | 0.00 | 0.00 | 0.00 | ||
| 20260901050419 | 20 | 253 | 9.7 | 16.1 | 0.00 | 0.00 | 0.00 | ||
| 20260901050018 | 21 | 240 | 6.4 | 12.9 | 0.00 | 0.00 | 0.00 | ||
| 20260901045617 | 21 | 239 | 8.0 | 12.9 | 0.00 | 0.00 | 0.00 | ||
| 20260901045215 | 21 | 223 | 4.8 | 8.0 | 0.00 | 0.00 | 0.00 | ||
| 20260901044814 | 20 | 222 | 9.7 | 14.5 | 0.00 | 0.00 | 0.00 | ||
| 20260901044412 | 20 | 218 | 6.4 | 11.3 | 0.00 | 0.00 | 0.00 | ||
| 20260901044010 | 20 | 220 | 8.0 | 14.5 | 0.00 | 0.00 | 0.00 | ||
| 20260901043602 | 20 | 222 | 8.0 | 14.5 | 0.00 | 0.00 | 0.00 | ||
| 20260901043200 | 20 | 216 | 9.7 | 17.7 | 0.00 | 0.00 | 0.00 | ||
| 20260901042758 | 20 | 215 | 9.7 | 16.1 | 0.00 | 0.00 | 0.00 | ||
| 20260901042357 | 20 | 222 | 8.0 | 12.9 | 0.00 | 0.00 | 0.00 | ||
| 20260901041955 | 20 | 222 | 8.0 | 14.5 | 0.00 | 0.00 | 0.00 | ||
| 20260901041554 | 20 | 220 | 6.4 | 11.3 | 0.00 | 0.00 | 0.00 | ||
| 20260901041151 | 20 | 218 | 6.4 | 12.9 | 0.00 | 0.00 | 0.00 | ||
| 20260901040750 | 20 | 219 | 9.7 | 17.7 | 0.00 | 0.00 | 0.00 | ||
| 20260901040349 | 20 | 220 | 8.0 | 12.9 | 0.00 | 0.00 | 0.00 | ||
| 20260901035947 | 20 | 217 | 6.4 | 12.9 | 0.00 | 0.00 | 0.00 | ||
| 20260901035538 | 20 | 225 | 8.0 | 11.3 | 0.00 | 0.00 | 0.00 | ||
| 20260901035136 | 20 | 221 | 8.0 | 14.5 | 0.00 | 0.00 | 0.00 | ||
| 20260901034735 | 20 | 216 | 8.0 | 14.5 | 0.00 | 0.00 | 0.00 | ||
| 20260901034334 | 20 | 222 | 9.7 | 16.1 | 0.00 | 0.00 | 0.00 | ||
| 20260901033531 | 20 | 216 | 9.7 | 17.7 | 0.00 | 0.00 | 0.00 | ||
| 20260901033129 | 20 | 206 | 11.3 | 16.1 | 0.00 | 0.00 | 0.00 | ||
| 20260901032728 | 20 | 208 | 11.3 | 17.7 | 0.00 | 0.00 | 0.00 | ||
| 20260901032327 | 20 | 209 | 9.7 | 16.1 | 0.00 | 0.00 | 0.00 | ||
| 20260901031924 | 20 | 213 | 8.0 | 12.9 | 0.00 | 0.00 | 0.00 | ||
| 20260901031516 | 20 | 203 | 8.0 | 14.5 | 0.00 | 0.00 | 0.00 | ||
| 20260901031114 | 20 | 202 | 8.0 | 12.9 | 0.00 | 0.00 | 0.00 | ||
| 20260901030713 | 20 | 202 | 6.4 | 11.3 | 0.00 | 0.00 | 0.00 | ||
| 20260901030311 | 18 | 202 | 4.8 | 6.4 | 0.00 | 0.00 | 0.00 | ||
| 20260901025909 | 18 | 202 | 4.8 | 8.0 | 0.00 | 0.00 | 0.00 | ||
| 20260901025508 | 18 | 202 | 4.8 | 6.4 | 0.00 | 0.00 | 0.00 | ||
| 20260901025106 | 19 | 202 | 3.2 | 4.8 | 0.00 | 0.00 | 0.00 | ||
| 20260901024704 | 20 | 202 | 3.2 | 6.4 | 0.00 | 0.00 | 0.00 | ||
| 20260901024303 | 18 | 202 | 4.8 | 8.0 | 0.00 | 0.00 | 0.00 | ||
| 20260901023901 | 17 | 202 | 3.2 | 3.2 | 0.00 | 0.00 | 0.00 | ||
| 20260901023453 | 18 | 202 | 1.6 | 3.2 | 0.00 | 0.00 | 0.00 | ||
| 20260901023051 | 18 | 202 | 3.2 | 4.8 | 0.00 | 0.00 | 0.00 | ||
| 20260901022649 | 19 | 202 | 3.2 | 3.2 | 0.00 | 0.00 | 0.00 | ||
| 20260901022248 | 19 | 202 | 1.6 | 3.2 | 0.00 | 0.00 | 0.00 | ||
| 20260901021846 | 20 | 202 | 3.2 | 4.8 | 0.00 | 0.00 | 0.00 | ||
| 20260901021445 | 20 | 204 | 3.2 | 4.8 | 0.00 | 0.00 | 0.00 | ||
| 20260901021042 | 21 | 202 | 3.2 | 6.4 | 0.00 | 0.00 | 0.00 | ||
| 20260901020641 | 20 | 202 | 3.2 | 4.8 | 0.00 | 0.00 | 0.00 | ||
| 20260901020240 | 18 | 202 | 1.6 | 3.2 | 0.00 | 0.00 | 0.00 | ||
| 20260901015839 | 19 | 202 | 3.2 | 4.8 | 0.00 | 0.00 | 0.00 | ||
| 20260901015429 | 21 | 202 | 4.8 | 6.4 | 0.00 | 0.00 | 0.00 | ||
| 20260901015028 | 21 | 202 | 4.8 | 8.0 | 0.00 | 0.00 | 0.00 | ||
| 20260901014627 | 21 | 202 | 6.4 | 8.0 | 0.00 | 0.00 | 0.00 | ||
| 20260901014226 | 21 | 206 | 6.4 | 9.7 | 0.00 | 0.00 | 0.00 | ||
| 20260901013823 | 21 | 225 | 6.4 | 11.3 | 0.00 | 0.00 | 0.00 | ||
| 20260901013422 | 21 | 234 | 6.4 | 9.7 | 0.00 | 0.00 | 0.00 | ||
| 20260901013020 | 21 | 225 | 6.4 | 9.7 | 0.00 | 0.00 | 0.00 | ||
| 20260901012619 | 21 | 228 | 6.4 | 8.0 | 0.00 | 0.00 | 0.00 | ||
| 20260901012218 | 21 | 227 | 6.4 | 11.3 | 0.00 | 0.00 | 0.00 | ||
| 20260901011815 | 21 | 225 | 4.8 | 6.4 | 0.00 | 0.00 | 0.00 | ||
| 20260901011406 | 21 | 223 | 4.8 | 9.7 | 0.00 | 0.00 | 0.00 | ||
| 20260901011005 | 21 | 218 | 6.4 | 11.3 | 0.00 | 0.00 | 0.00 | ||
| 20260901010604 | 21 | 182 | 4.8 | 8.0 | 0.00 | 0.00 | 0.00 | ||
| 20260901010201 | 21 | 202 | 4.8 | 6.4 | 0.00 | 0.00 | 0.00 | ||
| 20260901005800 | 21 | 195 | 6.4 | 11.3 | 0.00 | 0.00 | 0.00 | ||
| 20260901005359 | 21 | 202 | 8.0 | 9.7 | 0.00 | 0.00 | 0.00 | ||
| 20260901004957 | 21 | 202 | 6.4 | 9.7 | 0.00 | 0.00 | 0.00 | ||
| 20260901004555 | 21 | 202 | 6.4 | 9.7 | 0.00 | 0.00 | 0.00 | ||
| 20260901004154 | 21 | 187 | 6.4 | 9.7 | 0.00 | 0.00 | 0.00 | ||
| 20260901003758 | 20 | 186 | 4.8 | 8.0 | 0.00 | 0.00 | 0.00 | ||
| 20260901003752 | 20 | 186 | 4.8 | 8.0 | 0.00 | 0.00 | 0.00 | ||
| 20260901003344 | 20 | 180 | 4.8 | 6.4 | 0.00 | 0.00 | 0.00 | ||
| 20260901002941 | 20 | 180 | 4.8 | 8.0 | 0.00 | 0.00 | 0.00 | ||
| 20260901002540 | 21 | 180 | 4.8 | 8.0 | 0.00 | 0.00 | 0.00 | ||
| 20260901002139 | 21 | 180 | 4.8 | 8.0 | 0.00 | 0.00 | 0.00 | ||
| 20260901001737 | 20 | 180 | 4.8 | 6.4 | 0.00 | 0.00 | 0.00 | ||
| 20260901001336 | 20 | 180 | 3.2 | 6.4 | 0.00 | 0.00 | 0.00 | ||
| 20260901000933 | 20 | 193 | 3.2 | 6.4 | 0.00 | 0.00 | 0.00 | ||
| 20260901000532 | 20 | 180 | 3.2 | 6.4 | 0.00 | 0.00 | 0.00 | ||
| 20260901000131 | 20 | 169 | 6.4 | 8.0 | 0.00 | 0.00 | 0.00 | ||
| 20260831235729 | 20 | 157 | 4.8 | 8.0 | 0.00 | 0.00 | 0.00 | ||
| 20260831235320 | 21 | 180 | 6.4 | 9.7 | 0.00 | 0.00 | 0.00 | ||
| 20260831234918 | 20 | 180 | 4.8 | 8.0 | 0.00 | 0.00 | 0.00 | ||
| 20260831234517 | 20 | 202 | 4.8 | 6.4 | 0.00 | 0.00 | 0.00 | ||
| 20260831234115 | 20 | 202 | 4.8 | 6.4 | 0.00 | 0.00 | 0.00 | ||
| 20260831233712 | 21 | 202 | 3.2 | 8.0 | 0.00 | 0.00 | 0.00 | ||
| 20260831233311 | 21 | 202 | 4.8 | 9.7 | 0.00 | 0.00 | 0.00 | ||
| 20260831232908 | 21 | 202 | 4.8 | 8.0 | 0.00 | 0.00 | 0.00 | ||
| 20260831232507 | 21 | 202 | 4.8 | 6.4 | 0.00 | 0.00 | 0.00 | ||
| 20260831232105 | 21 | 202 | 4.8 | 8.0 | 0.00 | 0.00 | 0.00 | ||
| 20260831231703 | 20 | 201 | 4.8 | 6.4 | 0.00 | 0.00 | 0.00 | ||
| 20260831231255 | 20 | 180 | 3.2 | 4.8 | 0.00 | 0.00 | 0.00 | ||
| 20260831230854 | 20 | 202 | 3.2 | 4.8 | 0.00 | 0.00 | 0.00 | ||
| 20260831230453 | 20 | 202 | 4.8 | 6.4 | 0.00 | 0.00 | 0.00 | ||
| 20260831230050 | 20 | 225 | 4.8 | 6.4 | 0.00 | 0.00 | 0.00 | ||
| 20260831225649 | 20 | 225 | 3.2 | 6.4 | 0.00 | 0.00 | 0.00 | ||
| 20260831225247 | 21 | 225 | 1.6 | 4.8 | 0.00 | 0.00 | 0.00 | ||
| 20260831224845 | 21 | 225 | 3.2 | 6.4 | 0.00 | 0.00 | 0.00 | ||
| 20260831224443 | 20 | 202 | 3.2 | 4.8 | 0.00 | 0.00 | 0.00 | ||
| 20260831224042 | 21 | 202 | 1.6 | 3.2 | 0.00 | 0.00 | 0.00 | ||
| 20260831223640 | 19 | 202 | 0.0 | 0.0 | 0.00 | 0.00 | 0.00 | ||
| 20260831223232 | 19 | 202 | 0.0 | 0.0 | 0.00 | 0.00 | 0.00 | ||
| 20260831222829 | 19 | 202 | 0.0 | 0.0 | 0.00 | 0.00 | 0.00 | ||
| 20260831222428 | 19 | 202 | 0.0 | 0.0 | 0.00 | 0.00 | 0.00 | ||
| 20260831222027 | 19 | 202 | 0.0 | 0.0 | 0.00 | 0.00 | 0.00 | ||
| 20260831221626 | 19 | 202 | 0.0 | 0.0 | 0.00 | 0.00 | 0.00 | ||
| 20260831221223 | 20 | 202 | 0.0 | 0.0 | 0.00 | 0.00 | 0.00 | ||
| 20260831220822 | 20 | 202 | 0.0 | 0.0 | 0.00 | 0.00 | 0.00 | ||
| 20260831220421 | 20 | 202 | 0.0 | 0.0 | 0.00 | 0.00 | 0.00 | ||
| 20260831220020 | 20 | 202 | 0.0 | 0.0 | 0.00 | 0.00 | 0.00 | ||
| 20260831215618 | 20 | 202 | 0.0 | 1.6 | 0.00 | 0.00 | 0.00 | ||
| 20260831215209 | 21 | 202 | 1.6 | 3.2 | 0.00 | 0.00 | 0.00 | ||
| 20260831214807 | 21 | 202 | 0.0 | 3.2 | 0.00 | 0.00 | 0.00 | ||
| 20260831214406 | 21 | 202 | 3.2 | 6.4 | 0.00 | 0.00 | 0.00 | ||
| 20260831214005 | 20 | 202 | 3.2 | 4.8 | 0.00 | 0.00 | 0.00 | ||
| 20260831213602 | 20 | 202 | 0.0 | 0.0 | 0.00 | 0.00 | 0.00 | ||
| 20260831213201 | 20 | 202 | 0.0 | 3.2 | 0.00 | 0.00 | 0.00 | ||
| 20260831212759 | 20 | 202 | 3.2 | 3.2 | 0.00 | 0.00 | 0.00 | ||
| 20260831212358 | 20 | 202 | 1.6 | 4.8 | 0.00 | 0.00 | 0.00 | ||
| 20260831211956 | 20 | 202 | 1.6 | 3.2 | 0.00 | 0.00 | 0.00 | ||
| 20260831211554 | 21 | 202 | 3.2 | 3.2 | 0.00 | 0.00 | 0.00 | ||
| 20260831211146 | 21 | 272 | 1.6 | 4.8 | 0.00 | 0.00 | 0.00 | ||
| 20260831210744 | 21 | 338 | 0.0 | 1.6 | 0.00 | 0.00 | 0.00 | ||
| 20260831210342 | 20 | 338 | 0.0 | 1.6 | 0.00 | 0.00 | 0.00 | ||
| 20260831205941 | 20 | 338 | 0.0 | 0.0 | 0.00 | 0.00 | 0.00 | ||
| 20260831205539 | 21 | 338 | 0.0 | 1.6 | 0.00 | 0.00 | 0.00 | ||
| 20260831205138 | 20 | 338 | 0.0 | 0.0 | 0.00 | 0.00 | 0.00 | ||
| 20260831204736 | 20 | 338 | 0.0 | 0.0 | 0.00 | 0.00 | 0.00 | ||
| 20260831204334 | 20 | 338 | 0.0 | 0.0 | 0.00 | 0.00 | 0.00 | ||
| 20260831203933 | 21 | 338 | 0.0 | 0.0 | 0.00 | 0.00 | 0.00 | ||
| 20260831203531 | 21 | 338 | 0.0 | 0.0 | 0.00 | 0.00 | 0.00 | ||
| 20260831203123 | 21 | 338 | 0.0 | 0.0 | 0.00 | 0.00 | 0.00 | ||
| 20260831202720 | 21 | 338 | 0.0 | 1.6 | 0.00 | 0.00 | 0.00 | ||
| 20260831202319 | 21 | 338 | 0.0 | 1.6 | 0.00 | 0.00 | 0.00 | ||
| 20260831201918 | 21 | 338 | 0.0 | 0.0 | 0.00 | 0.00 | 0.00 | ||
| 20260831201517 | 21 | 338 | 0.0 | 0.0 | 0.00 | 0.00 | 0.00 | ||
| 20260831201114 | 21 | 338 | 0.0 | 0.0 | 0.00 | 0.00 | 0.00 | ||
| 20260831200713 | 21 | 338 | 0.0 | 0.0 | 0.00 | 0.00 | 0.00 | ||
| 20260831200312 | 21 | 338 | 0.0 | 0.0 | 0.00 | 0.00 | 0.00 | ||
| 20260831195911 | 22 | 338 | 0.0 | 0.0 | 0.00 | 0.00 | 0.00 | ||
| 20260831195508 | 21 | 338 | 0.0 | 0.0 | 0.00 | 0.00 | 0.00 | ||
| 20260831195100 | 21 | 338 | 0.0 | 0.0 | 0.00 | 0.00 | 0.00 | ||
| 20260831194658 | 21 | 338 | 0.0 | 1.6 | 0.00 | 0.00 | 0.00 | ||
| 20260831194257 | 21 | 338 | 0.0 | 0.0 | 0.00 | 0.00 | 0.00 | ||
| 20260831193856 | 21 | 338 | 0.0 | 1.6 | 0.00 | 0.00 | 0.00 | ||
| 20260831193453 | 21 | 338 | 0.0 | 3.2 | 0.00 | 0.00 | 0.00 | ||
| 20260831193052 | 21 | 338 | 1.6 | 3.2 | 0.00 | 0.00 | 0.00 | ||
| 20260831192249 | 21 | 338 | 3.2 | 4.8 | 0.00 | 0.00 | 0.00 | ||
| 20260831191847 | 21 | 338 | 1.6 | 4.8 | 0.00 | 0.00 | 0.00 | ||
| 20260831191445 | 21 | 338 | 1.6 | 3.2 | 0.00 | 0.00 | 0.00 | ||
| 20260831191037 | 21 | 338 | 1.6 | 3.2 | 0.00 | 0.00 | 0.00 | ||
| 20260831190635 | 21 | 333 | 1.6 | 4.8 | 0.00 | 0.00 | 0.00 | ||
| 20260831190233 | 22 | 315 | 0.0 | 3.2 | 0.00 | 0.00 | 0.00 | ||
| 20260831185431 | 22 | 292 | 0.0 | 3.2 | 0.00 | 0.00 | 0.00 | ||
| 20260831185029 | 22 | 293 | 1.6 | 6.4 | 0.00 | 0.00 | 0.00 | ||
| 20260831184626 | 22 | 292 | 1.6 | 4.8 | 0.00 | 0.00 | 0.00 | ||
| 20260831184226 | 22 | 292 | 1.6 | 4.8 | 0.00 | 0.00 | 0.00 | ||
| 20260831183825 | 22 | 295 | 4.8 | 11.3 | 0.00 | 0.00 | 0.00 | ||
| 20260831183423 | 22 | 292 | 3.2 | 8.0 | 0.00 | 0.00 | 0.00 | ||
| 20260831183015 | 22 | 292 | 3.2 | 9.7 | 0.00 | 0.00 | 0.00 | ||
| 20260831182612 | 22 | 288 | 4.8 | 9.7 | 0.00 | 0.00 | 0.00 | ||
| 20260831182211 | 22 | 292 | 1.6 | 4.8 | 0.00 | 0.00 | 0.00 | ||
| 20260831181810 | 22 | 292 | 3.2 | 4.8 | 0.00 | 0.00 | 0.00 | ||
| 20260831181408 | 22 | 292 | 3.2 | 6.4 | 0.00 | 0.00 | 0.00 | ||
| 20260831181006 | 22 | 292 | 3.2 | 4.8 | 0.00 | 0.00 | 0.00 | ||
| 20260831180604 | 23 | 270 | 3.2 | 3.2 | 0.00 | 0.00 | 0.00 | ||
| 20260831180203 | 23 | 270 | 3.2 | 3.2 | 0.00 | 0.00 | 0.00 | ||
| 20260831175802 | 23 | 270 | 3.2 | 4.8 | 0.00 | 0.00 | 0.00 | ||
| 20260831175359 | 23 | 270 | 3.2 | 4.8 | 0.00 | 0.00 | 0.00 | ||
| 20260831174951 | 23 | 270 | 3.2 | 4.8 | 0.00 | 0.00 | 0.00 | ||
| 20260831174549 | 23 | 270 | 4.8 | 8.0 | 0.00 | 0.00 | 0.00 | ||
| 20260831174148 | 23 | 270 | 6.4 | 8.0 | 0.00 | 0.00 | 0.00 | ||
| 20260831173746 | 23 | 270 | 6.4 | 9.7 | 0.00 | 0.00 | 0.00 | ||
| 20260831173344 | 23 | 270 | 4.8 | 9.7 | 0.00 | 0.00 | 0.00 | ||
| 20260831172943 | 23 | 270 | 4.8 | 6.4 | 0.00 | 0.00 | 0.00 | ||
| 20260831172542 | 23 | 270 | 4.8 | 9.7 | 0.00 | 0.00 | 0.00 | ||
| 20260831172140 | 24 | 270 | 6.4 | 8.0 | 0.00 | 0.00 | 0.00 | ||
| 20260831171738 | 24 | 272 | 6.4 | 9.7 | 0.00 | 0.00 | 0.00 | ||
| 20260831171336 | 24 | 269 | 8.0 | 11.3 | 0.00 | 0.00 | 0.00 | ||
| 20260831170928 | 24 | 272 | 6.4 | 9.7 | 0.00 | 0.00 | 0.00 | ||
| 20260831170527 | 25 | 265 | 9.7 | 14.5 | 0.00 | 0.00 | 0.00 | ||
| 20260831170124 | 25 | 256 | 6.4 | 11.3 | 0.00 | 0.00 | 0.00 | ||
| 20260831165724 | 25 | 244 | 8.0 | 12.9 | 0.00 | 0.00 | 0.00 | ||
| 20260831165322 | 26 | 254 | 8.0 | 16.1 | 0.00 | 0.00 | 0.00 | ||
| 20260831164921 | 27 | 262 | 4.8 | 11.3 | 0.00 | 0.00 | 0.00 | ||
| 20260831164518 | 27 | 249 | 4.8 | 8.0 | 0.00 | 0.00 | 0.00 | ||
| 20260831164117 | 27 | 248 | 6.4 | 12.9 | 0.00 | 0.00 | 0.00 | ||
| 20260831163716 | 28 | 268 | 4.8 | 9.7 | 0.00 | 0.00 | 0.00 | ||
| 20260831163314 | 27 | 256 | 8.0 | 12.9 | 0.00 | 0.00 | 0.00 | ||
| 20260831162905 | 27 | 254 | 8.0 | 14.5 | 0.00 | 0.00 | 0.00 | ||
| 20260831162502 | 27 | 261 | 8.0 | 12.9 | 0.00 | 0.00 | 0.00 | ||
| 20260831162101 | 25 | 266 | 6.4 | 11.3 | 0.00 | 0.00 | 0.00 | ||
| 20260831161700 | 25 | 254 | 8.0 | 11.3 | 0.00 | 0.00 | 0.00 | ||
| 20260831161258 | 26 | 255 | 6.4 | 9.7 | 0.00 | 0.00 | 0.00 | ||
| 20260831160856 | 25 | 252 | 8.0 | 12.9 | 0.00 | 0.00 | 0.00 | ||
| 20260831160453 | 25 | 265 | 6.4 | 9.7 | 0.00 | 0.00 | 0.00 | ||
| 20260831160052 | 25 | 255 | 8.0 | 11.3 | 0.00 | 0.00 | 0.00 | ||
| 20260831155651 | 25 | 265 | 6.4 | 9.7 | 0.00 | 0.00 | 0.00 | ||
| 20260831155248 | 25 | 258 | 11.3 | 14.5 | 0.00 | 0.00 | 0.00 | ||
| 20260831154840 | 25 | 255 | 8.0 | 12.9 | 0.00 | 0.00 | 0.00 | ||
| 20260831154438 | 25 | 259 | 9.7 | 19.3 | 0.00 | 0.00 | 0.00 | ||
| 20260831154037 | 25 | 261 | 8.0 | 12.9 | 0.00 | 0.00 | 0.00 | ||
| 20260831153635 | 26 | 236 | 8.0 | 19.3 | 0.00 | 0.00 | 0.00 | ||
| 20260831153233 | 26 | 258 | 14.5 | 19.3 | 0.00 | 0.00 | 0.00 | ||
| 20260831152832 | 26 | 259 | 14.5 | 19.3 | 0.00 | 0.00 | 0.00 | ||
| 20260831152430 | 26 | 255 | 14.5 | 20.9 | 0.00 | 0.00 | 0.00 | ||
| 20260831152028 | 26 | 272 | 9.7 | 16.1 | 0.00 | 0.00 | 0.00 | ||
| 20260831151627 | 26 | 232 | 12.9 | 17.7 | 0.00 | 0.00 | 0.00 | ||
| 20260831151225 | 26 | 236 | 11.3 | 20.9 | 0.00 | 0.00 | 0.00 | ||
| 20260831150818 | 25 | 235 | 16.1 | 22.5 | 0.00 | 0.00 | 0.00 | ||
| 20260831150416 | 25 | 230 | 12.9 | 16.1 | 0.00 | 0.00 | 0.00 | ||
| 20260831150014 | 25 | 243 | 12.9 | 19.3 | 0.00 | 0.00 | 0.00 | ||
| 20260831145613 | 25 | 260 | 14.5 | 17.7 | 0.00 | 0.00 | 0.00 | ||
| 20260831145211 | 25 | 263 | 16.1 | 20.9 | 0.00 | 0.00 | 0.00 | ||
| 20260831144810 | 25 | 263 | 16.1 | 24.1 | 0.00 | 0.00 | 0.00 | ||
| 20260831144506 | 25 | 269 | 9.7 | 14.5 | 0.00 | 0.00 | 0.00 | ||
| 20260831144407 | 25 | 254 | 17.7 | 27.4 | 0.00 | 0.00 | 0.00 | ||
| 20260831144005 | 25 | 263 | 14.5 | 24.1 | 0.00 | 0.00 | 0.00 | ||
| 20260831143604 | 25 | 269 | 9.7 | 14.5 | 0.00 | 0.00 | 0.00 | ||
| 20260831143310 | 25 | 243 | 14.5 | 19.3 | 0.00 | 0.00 | 0.00 | ||
| 20260831143202 | 25 | 243 | 14.5 | 19.3 | 0.00 | 0.00 | 0.00 | ||
| 20260831142753 | 25 | 236 | 14.5 | 22.5 | 0.00 | 0.00 | 0.00 | ||
| 20260831142351 | 26 | 235 | 14.5 | 22.5 | 0.00 | 0.00 | 0.00 | ||
| 20260831141950 | 25 | 244 | 12.9 | 16.1 | 0.00 | 0.00 | 0.00 | ||
| 20260831141549 | 26 | 254 | 11.3 | 16.1 | 0.00 | 0.00 | 0.00 | ||
| 20260831141146 | 26 | 231 | 14.5 | 19.3 | 0.00 | 0.00 | 0.00 | ||
| 20260831140343 | 25 | 251 | 12.9 | 22.5 | 0.00 | 0.00 | 0.00 | ||
| 20260831135942 | 25 | 255 | 14.5 | 22.5 | 0.00 | 0.00 | 0.00 | ||
| 20260831135541 | 25 | 260 | 14.5 | 22.5 | 0.00 | 0.00 | 0.00 | ||
| 20260831135138 | 25 | 251 | 14.5 | 19.3 | 0.00 | 0.00 | 0.00 | ||
| 20260831134730 | 25 | 252 | 14.5 | 22.5 | 0.00 | 0.00 | 0.00 | ||
| 20260831134328 | 26 | 247 | 12.9 | 20.9 | 0.00 | 0.00 | 0.00 | ||
| 20260831133928 | 25 | 250 | 16.1 | 20.9 | 0.00 | 0.00 | 0.00 | ||
| 20260831133525 | 25 | 259 | 14.5 | 27.4 | 0.00 | 0.00 | 0.00 | ||
| 20260831133124 | 25 | 258 | 14.5 | 22.5 | 0.00 | 0.00 | 0.00 | ||
| 20260831132723 | 25 | 256 | 12.9 | 19.3 | 0.00 | 0.00 | 0.00 | ||
| 20260831132321 | 25 | 245 | 16.1 | 22.5 | 0.00 | 0.00 | 0.00 | ||
| 20260831131919 | 24 | 255 | 14.5 | 25.7 | 0.00 | 0.00 | 0.00 | ||
| 20260831131518 | 25 | 254 | 11.3 | 17.7 | 0.00 | 0.00 | 0.00 | ||
| 20260831131116 | 25 | 261 | 12.9 | 17.7 | 0.00 | 0.00 | 0.00 | ||
| 20260831130708 | 24 | 271 | 16.1 | 24.1 | 0.00 | 0.00 | 0.00 | ||
| 20260831130305 | 24 | 267 | 14.5 | 20.9 | 0.00 | 0.00 | 0.00 | ||
| 20260831125903 | 24 | 264 | 12.9 | 19.3 | 0.00 | 0.00 | 0.00 | ||
| 20260831125502 | 24 | 272 | 17.7 | 27.4 | 0.00 | 0.00 | 0.00 | ||
| 20260831125100 | 24 | 268 | 12.9 | 22.5 | 0.00 | 0.00 | 0.00 | ||
| 20260831124659 | 23 | 269 | 11.3 | 17.7 | 0.00 | 0.00 | 0.00 | ||
| 20260831124256 | 23 | 277 | 19.3 | 29.0 | 0.00 | 0.00 | 0.00 | ||
| 20260831123856 | 24 | 272 | 19.3 | 30.6 | 0.00 | 0.00 | 0.00 | ||
| 20260831123454 | 25 | 278 | 11.3 | 27.4 | 0.00 | 0.00 | 0.00 | ||
| 20260831123053 | 25 | 274 | 16.1 | 22.5 | 0.00 | 0.00 | 0.00 | ||
| 20260831123006 | 25 | 274 | 16.1 | 22.5 | 0.00 | 0.00 | 0.00 | ||
| 20260831122643 | 25 | 274 | 16.1 | 22.5 | 0.00 | 0.00 | 0.00 | ||
| 20260831122242 | 26 | 269 | 12.9 | 16.1 | 0.00 | 0.00 | 0.00 | ||
| 20260831121841 | 26 | 277 | 14.5 | 19.3 | 0.00 | 0.00 | 0.00 | ||
| 20260831121440 | 26 | 272 | 17.7 | 29.0 | 0.00 | 0.00 | 0.00 | ||
| 20260831121037 | 26 | 284 | 14.5 | 19.3 | 0.00 | 0.00 | 0.00 | ||
| 20260831120636 | 26 | 294 | 17.7 | 29.0 | 0.00 | 0.00 | 0.00 | ||
| 20260831120233 | 27 | 260 | 14.5 | 27.4 | 0.00 | 0.00 | 0.00 | ||
| 20260831115832 | 27 | 257 | 12.9 | 19.3 | 0.00 | 0.00 | 0.00 | ||
| 20260831115430 | 27 | 246 | 12.9 | 16.1 | 0.00 | 0.00 | 0.00 | ||
| 20260831115028 | 27 | 271 | 12.9 | 22.5 | 0.00 | 0.00 | 0.00 | ||
| 20260831114620 | 27 | 248 | 11.3 | 14.5 | 0.00 | 0.00 | 0.00 | ||
| 20260831114217 | 27 | 267 | 6.4 | 9.7 | 0.00 | 0.00 | 0.00 | ||
| 20260831113817 | 27 | 260 | 8.0 | 11.3 | 0.00 | 0.00 | 0.00 | ||
| 20260831113414 | 27 | 306 | 4.8 | 8.0 | 0.00 | 0.00 | 0.00 | ||
| 20260831113012 | 27 | 299 | 4.8 | 8.0 | 0.00 | 0.00 | 0.00 | ||
| 20260831112612 | 27 | 344 | 4.8 | 8.0 | 0.00 | 0.00 | 0.00 | ||
| 20260831112210 | 27 | 315 | 3.2 | 6.4 | 0.00 | 0.00 | 0.00 | ||
| 20260831111808 | 27 | 305 | 4.8 | 8.0 | 0.00 | 0.00 | 0.00 | ||
| 20260831111407 | 26 | 308 | 8.0 | 11.3 | 0.00 | 0.00 | 0.00 | ||
| 20260831111004 | 27 | 333 | 4.8 | 9.7 | 0.00 | 0.00 | 0.00 | ||
| 20260831110556 | 26 | 321 | 6.4 | 9.7 | 0.00 | 0.00 | 0.00 |